Weather Refreshing every minute   No change Green  Reduced Blue  Increased Red  Changed Cyan
DescriptionDate Time (UTC/GMT)Temperature °CDew Point Temperature °CLiquid Freezing temperature °CMax Wind Direction °C Max Wind Speed m/sPrecipitation Total mmRain Intensity mm/hrRain On/OffRain State Relative Humidity %Surface StateSurface Temperature °CWater Layer mmWater Thickness mmWind Direction °D Wind Speed m/s
B1318 Great North Road 06/02/2020 11:10:00 7.7 2.6 0 0 4.4 0 0 Rain detector off No Precipitation 70.3 Dry 0 0 0 273 3.2
B1318 06/02/2020 11:10:00 7.4 2.9 0 0 5.8 0 0 Rain detector off No Precipitation 73.1 Moist 0 0 0 278 3.3
C304 Garesfield 06/02/2020 11:10:00 6.1 2.8 0 318 5.5 0 0 Rain detector off No Precipitation 79 Wet 0 0.21 0 305 3.5
A1231 Wessington Way 06/02/2020 11:00:00 7.6 3.1 -1.5 82 3.8 0 0 Rain detector off No Precipitation 73 Moist 0 0 0 319 1.2
Burdon Lane 06/02/2020 11:00:00 6.8 1.8 -1.1 0 1 0 0 Rain detector off Invalid 70 Trace of Chemical 0 0 0 262 0.8
A690 Houghton Cut 06/02/2020 11:00:00 7.1 2.8 -10.7 340 2.4 0 0 Rain detector off No Precipitation 74 Trace of Chemical 0 0 0.01 191 0.9
A1018 Sunderland Road 06/02/2020 11:10:00 7.8 3.1 -1.9 93 2.6 0 0 Rain detector off No Precipitation 72 Moist 0 0 0 320 1.2
Hedworth Lane 06/02/2020 11:10:00 8.4 3.3 -4 329 2.8 0 0 Rain detector off No Precipitation 70 Moist 0 0 0 239 0.9
A185 Hebburn 06/02/2020 11:10:00 7.8 2.6 0 0 0 0 0 Rain detector off Invalid 69.5 Unavailable 0 0 0 0 0
A1058 Formica 06/02/2020 11:10:00 7.6 3.2 -0.2 332 2.8 0 0 Rain detector off No Precipitation 74 Dry 0 0 0 244 1.7
A1 Berwick-upon-Tweed 06/02/2020 11:10:00 5.8 2.7 -1.7 140 4.1 0 0 Rain detector off No Precipitation 80 Dry 0 0 0 326 2.1
A1 Haggerston 06/02/2020 11:00:00 6.1 2.9 -3 152 2.5 0 0 Rain detector off No Precipitation 80 Trace of Chemical 0 0 0 360 0.7
A1 Felton 06/02/2020 11:00:00 7.8 3.6 -0.5 72 0.1 0 0 Rain detector off No Precipitation 75 Dry 0 0 0 275 0
A1 Rosebrough 06/02/2020 11:00:00 6.2 3.1 -1.7 167 0.1 0 0 Rain detector off No Precipitation 80 Dry 0 0 0 71 0
A1 Stannington 06/02/2020 11:00:00 7.4 2.8 -0.4 8 6 0 0 Rain detector off No Precipitation 73 Dry 0 0 0 270 3.5
A697 Longframlington 06/02/2020 11:10:00 7.4 2.8 -7.7 357 0.6 0 0 Rain detector off No Precipitation 72 Trace of Chemical 0 0 0 152 0.5
A698 Norham / B6470 The Salutation 06/02/2020 11:10:00 6.3 2.8 -13.3 305 5 0 0 Rain detector off No Precipitation 78 Trace of Chemical 0 0 0.01 261 3.3
A189 Cramlington 06/02/2020 11:10:00 7.3 3.4 -3.9 85 4.9 0 0 Rain detector off No Precipitation 76 Moist 0 0 0 267 2.6
A69 Mowden Hall 06/02/2020 11:10:00 7.4 3 -0.4 342 4.3 0 0 Rain detector off No Precipitation 74 Dry 0 0 0.12 247 2.1
A696 Raechester 06/02/2020 11:10:00 5.6 2.7 -8.7 0 5.8 0 0 Rain detector off No Precipitation 81 Trace of Chemical 0 0 0.01 256 5.5
A1 Metrocentre 06/02/2020 11:00:00 7.9 2.7 -1.1 152 3.5 0 0 Rain detector off No Precipitation 70 Dry 0 0 0 343 1.3
A189 Redheugh Bridge 22/05/2019 10:35:00 0 0 0 216 8.5 0 0 Rain detector off Invalid 0 Invalid 0 0 0 288 3
A68 Tow Law 25/03/2019 14:10:00 9.3 -0.8 0 127 3.9 0 0 Rain detector off No Precipitation 49 Dry 0 0 0 328 1.8
A689 Lanehead 25/03/2019 14:10:00 9 0 0 1 6.5 0 0 Rain detector off No Precipitation 0 Dry 0 0 0 253 4.1
A194(M) Blackfell 25/03/2019 14:00:00 11.6 1.1 0 138 3.2 0 0 Rain detector off No Precipitation 48 Dry 0 0 0 31 1.3
Great Stainton 25/03/2019 14:10:00 9.2 1.6 0 147 5.6 0 0 Rain detector off No Precipitation 59 Dry 0 0 0 30 3.8
A6072 Redworth 25/03/2019 14:10:00 10.5 0 0 220 4.6 0 0 Rain detector off No Precipitation 48 Dry 0 0 0 181 2.8
A1 Coniscliffe 25/03/2019 14:00:00 12.3 -0.3 0 100 2.5 0 0 Rain detector off No Precipitation 42 Dry 0 0 0 301 1
A19 Low Stotfold 25/03/2019 14:10:00 9.5 0.7 0 85 7.5 0 0 Rain detector off No Precipitation 54 Dry 0 0 0 346 5.1
A66 Elton 25/03/2019 14:00:00 10.5 1.2 0 164 4.1 0 0 Rain detector off No Precipitation 53 Dry 0 0 0 17 2.1
A181 Running Waters 25/03/2019 14:10:00 9.9 0.5 0 127 4.4 0 0 Rain detector off No Precipitation 52 Dry 0 0 0 16 1.8
B6277 Forest in Teesdale 25/03/2019 14:10:00 8.8 0.8 0 72 4.3 0 0 Rain detector off No Precipitation 57 Dry 0 0 0 313 1.7
A66 North Bitts 25/03/2019 14:00:00 10.4 0.2 0 86 2.9 0 0 Rain detector off No Precipitation 49 Dry 0 0 0 275 1.3
B6309 Medomsley 25/03/2019 14:10:00 10.4 -1.1 0 95 6 0 0 Rain detector off No Precipitation 45 Dry 0 0 0 333 2.3
A689 Bradbury 25/03/2019 14:00:00 10.4 1.6 0 38 4.8 0 0 Rain detector off No Precipitation 54 Dry 0 0 0 308 2.6
B1432 Hawthorn 25/03/2019 14:10:00 8.6 0.9 0 121 7 0 0 Rain detector off No Precipitation 58 Dry 0 0 0 82 5
B6302 Ushaw Moor 25/03/2019 14:10:00 12 -0.2 0 316 4.4 0 0 Rain detector off No Precipitation 43 Dry 0 0 0 303 1.6
A689 Toronto 25/03/2019 14:10:00 10.7 0.5 0 13 3.8 0 0 Rain detector off No Precipitation 49 Dry 0 0 0 271 1.7
A66 Stainmore 25/03/2019 14:00:00 10.5 0.7 0 304 7.7 0 0 Unavailable Unavailable 59 Dry 0 0 0 250 5